www.pogodaiklimat.ru

Погода и климат >> Архив погоды >> Норвегия >> Свальбард аэропорт


ПОГОДА в Свальбард аэропорту

  • Прогноз погоды в Свальбард аэропорту
  • Монитор погоды в Свальбард аэропорту

АРХИВ ПОГОДЫ в Свальбард аэропорту

Время (UTC), дата Ветер
(напр.,м/с)
 
Видим.   Явления Облачность Т
(С)
Тd
(С)
f
(%)
Тe
(С)
Тes
(С)
Комфортность P
(гПа)
Po
(гПа)
Тmin
(С)
Tmax
(С)
R
(мм)
R24
(мм)
S
(см)
10 12.06 СЗ 2
{3}
н/о н/о +3.4 +0.6 82 +1 +1 1028.4 1024.8
11 12.06 З 2
{3}
н/о н/о +3.8 +0.9 81 +1 +1 1028.6 1024.9
12 12.06 З 3
{4}
55 км 9/9 300 м
[Sc]
+3.8 +0.7 80 0 +1 1028.7 1025.1
13 12.06 З 2
{4}
н/о н/о +4.3 +0.3 75 +2 +2 1028.8 1025.2
14 12.06 З 4
{5}
н/о н/о +4.1 +0.3 76 -0 -0 1028.9 1025.3
15 12.06 З 4
{5}
50 км 4/4 300 м
[Sc Ac trans]
+4.4 +0.6 76 0 +2 1028.6 1025.0
16 12.06 З 5
{7}
н/о н/о +4.6 +0.9 77 -0 -0 1028.5 1024.9
17 12.06 З 5
{7}
н/о н/о +4.7 +1.0 77 0 0 1028.9 1025.3
18 12.06 ЮЗ 6
{8}
н/о н/о +4.6 +0.4 74 -1 -1 1028.2 1024.6 +2.7 +5.3
19 12.06 З 6
{8}
н/о н/о +4.1 +0.3 76 -1 -1 1028.5 1024.9
20 12.06 ЮЗ 7
{8}
н/о н/о +3.8 -0.4 74 -2 -2 1028.3 1024.6
21 12.06 З 7
{9}
45 км 8/4 300 м
[Sc Ci fib]
+3.3 0.0 79 -3 -2 1028.3 1024.6
22 12.06 ЮЗ 8
{11}
н/о н/о +3.3 -0.3 77 -3 -3 1028.5 1024.8
23 12.06 ЮЗ 7
{10}
н/о н/о +2.9 -0.9 76 -3 -3 1028.0 1024.4
00 13.06 ЮЗ 8
{11}
45 км 9/4 300 м
[Sc Ci sp]
+2.2 -0.2 84 -5 -4 1027.9 1024.2
01 13.06 ЮЗ 10
{12}
н/о н/о +2.3 -0.6 81 -5 -5 1027.7 1024.1
02 13.06 ЮЗ 11
{14}
н/о н/о +2.2 -1.0 79 -5 -5 1027.0 1023.4
03 13.06 ЮЗ 10
{14}
45 км 9/3 600 м
[Sc Ci fib]
+2.6 -1.4 75 -5 -4 1026.9 1023.3
04 13.06 ЮЗ 8
{13}
н/о н/о +2.2 0.0 85 -5 -5 1026.6 1023.0
05 13.06 ЮЗ 6
{12}
н/о н/о +2.6 0.0 83 -3 -3 1026.2 1022.6
06 13.06 ЮЗ 7
{14}
30 км 9/9 300 м
[Sc]
+2.3 -0.4 82 -4 -4 1025.8 1022.2 +1.8 +4.6
07 13.06 ЮЗ 6
{15}
н/о н/о +2.8 -0.5 79 -3 -3 1025.0 1021.4
08 13.06 ЮЗ 7
{11}
н/о н/о +3.5 -0.7 74 -2 -2 1024.8 1021.2
09 13.06 ЮЗ 5
{10}
10 км слаб. морось 9/9 200 м
[St]
+3.0 +0.7 85 -2 -2 1024.6 1021.0
10 13.06 ЮЗ 6
{9}
н/о н/о +3.6 +1.3 85 -2 -2 1023.8 1020.2
11 13.06 ЮЗ 5
{11}
н/о н/о +3.6 +1.2 84 -2 -2 1023.3 1019.7
12 13.06 З 9
{15}
30 км {морось} 9/9 300 м
[Sc]
+3.7 +0.9 82 -3 -3 1022.9 1019.3
13 13.06 ЮЗ 6
{12}
н/о н/о +3.8 +0.3 78 -2 -2 1022.4 1018.8
14 13.06 ЮЗ 7
{12}
н/о н/о +3.6 +0.8 82 -2 -2 1022.1 1018.5
15 13.06 ЮЗ 6
{9}
н/о н/о +3.6 +1.2 84 -2 -2 1021.9 1018.3
16 13.06 ЮЗ 5
{8}
н/о н/о +3.9 +1.5 84 -1 -1 1021.5 1017.9
17 13.06 ЮЗ 5
{7}
н/о н/о +4.5 +1.5 81 -0 -0 1021.3 1017.8
18 13.06 ЮЗ 4
{12}
40 км слаб. морось 9/9 200 м
[Sc]
+4.0 +1.2 82 -0 -0 1021.1 1017.5 +2.3 +5.4
19 13.06 З 5
{6}
н/о н/о +3.8 +1.4 84 -1 -1 1021.3 1017.7
20 13.06 З 5
{7}
н/о н/о +3.6 +0.7 81 -1 -1 1020.8 1017.2
21 13.06 ЮЗ 4
{7}
45 км 9/6 300 м
[Sc Ac trans]
+3.6 +0.8 82 -1 -1 1020.7 1017.1
22 13.06 ЮЗ 5
{8}
н/о н/о +3.9 +0.8 80 -1 -1 1020.3 1016.7
23 13.06 ЮЗ 6
{8}
н/о н/о +4.1 +1.0 80 -1 -1 1020.2 1016.6
00 14.06 З 6
{8}
40 км 9/9 200 м
[Sc]
+3.7 +1.1 83 -2 -2 1019.9 1016.3
01 14.06 ЮЗ 6
{11}
н/о н/о +3.5 +0.9 83 -2 -2 1019.7 1016.1
02 14.06 ЮЗ 7
{11}
н/о н/о +3.5 +0.6 81 -2 -2 1019.1 1015.5
03 14.06 З 10
{13}
45 км 6/6 300 м
[Sc]
+4.5 +1.4 80 -2 -2 1018.7 1015.2
04 14.06 З 11
{14}
н/о н/о +5.2 +1.5 77 -1 -1 1018.3 1014.8
05 14.06 З 10
{14}
н/о н/о +5.4 +1.7 77 -1 -1 1018.5 1014.9
06 14.06 ЮЗ 11
{14}
55 км 3/3 200 м
[St]
+6.4 +1.5 71 +1 +1 1018.4 1014.9 +3.0 +6.6
07 14.06 ЮЗ 9
{14}
н/о н/о +6.3 +1.6 72 +1 +1 1019.0 1015.4
08 14.06 З 9
{11}
н/о н/о +6.7 +2.4 74 +1 +1 1019.1 1015.5
09 14.06 З 8
{12}
55 км 5/1 100 м
[St Ci fib]
+5.7 +2.4 79 0 +1 1019.6 1016.1
10 14.06 З 6
{9}
н/о н/о +5.8 +1.9 76 +1 +1 1020.0 1016.4
11 14.06 З 5
{7}
н/о н/о +6.4 +2.1 74 +2 +2 1019.6 1016.0
12 14.06 З 7
{14}
65 км 1/1 200 м
[St Ci fib]
+5.8 +3.6 86 +1 +2 1019.5 1015.9
13 14.06 З 6
{9}
н/о н/о +6.3 +2.8 78 +2 +2 1019.2 1015.6
14 14.06 ЮЗ 7
{12}
н/о н/о +6.6 +3.1 78 +2 +2 1018.6 1015.1
15 14.06 З 11
{13}
65 км 1/1 200 м
[St]
+7.9 +3.2 72 +3 +3 1018.4 1014.9
16 14.06 З 11
{13}
н/о н/о +12.0 +2.7 53 +8 +8 1017.8 1014.3
17 14.06 З 10
{13}
н/о н/о +9.5 +2.8 63 +5 +5 1017.7 1014.1
18 14.06 З 10
{13}
55 км 3/1 50 м
[St Ac trans]
+8.4 +3.1 69 +4 +4 1017.1 1013.6 +5.3 +12.1
19 14.06 З 9
{14}
н/о н/о +6.8 +2.7 75 +1 +1 1016.3 1012.8
20 14.06 ЮЗ 8
{11}
н/о н/о +8.1 +3.0 70 +4 +4 1015.6 1012.0
21 14.06 З 11
{14}
65 км 8/1 100 м
[St Ac lent Ci fib]
+9.6 +1.5 57 +5 +5 1014.8 1011.3
22 14.06 З 12
{15}
н/о н/о +9.6 +1.0 55 +5 +5 1014.2 1010.7
23 14.06 З 10
{14}
н/о н/о +6.6 +2.5 75 +1 +1 1013.8 1010.2
00 15.06 З 11
{15}
65 км 9/1 50 м
[St Ac trans]
+6.2 +3.2 81 0 0 1013.0 1009.4
01 15.06 З 9
{15}
н/о н/о +6.8 +2.5 74 +2 +2 1012.3 1008.8
02 15.06 З 10
{13}
н/о н/о +6.2 +2.5 77 0 0 1011.8 1008.3
03 15.06 З 10
{14}
65 км 9/1 100 м
[St Ac trans]
+5.5 +2.7 82 -1 -1 1011.4 1007.9
04 15.06 З 12
{14}
н/о н/о +6.6 +2.7 76 0 0 1011.0 1007.5
05 15.06 ЮЗ 10
{14}
н/о н/о +6.8 +2.5 74 +1 +1 1011.1 1007.6
06 15.06 ЮЗ 7
{15}
65 км 3/1 100 м
[St Ac trans]
+6.9 +2.6 74 +2 +3 1010.8 1007.3 +5.4 +11.6 0.0
07 15.06 З 10
{14}
н/о н/о +8.6 +2.8 67 +4 +4 1010.5 1007.0
08 15.06 ЮЗ 11
{12}
н/о н/о +9.5 +2.2 60 +5 +5 1010.1 1006.6
09 15.06 ЮЗ 10
{13}
65 км 3/1 100 м
[St Ac lent]
+9.8 +2.0 58 +6 +6 1010.4 1006.9
10 15.06 ЮЗ 8
{11}
н/о н/о +9.9 +2.5 60 +6 +6 1010.8 1007.3
11 15.06 З 6
{10}
н/о н/о +8.6 +2.2 64 +5 +5 1011.0 1007.5
12 15.06 ЮЗ 7
{14}
60 км 5/4 600 м
[Sc Ac trans]
+8.3 +2.1 65 +4 +4 1011.3 1007.8
13 15.06 З 7
{11}
н/о н/о +8.6 +2.4 65 +5 +5 1011.2 1007.7
14 15.06 СЗ 5
{9}
н/о н/о +8.3 +3.6 72 +5 +5 1011.8 1008.3
15 15.06 СЗ 6
{8}
>70 км 4/4 300 м
[Sc]
+7.1 +2.2 71 +3 +4 1011.8 1008.3
16 15.06 З 4
{6}
н/о н/о +6.8 +2.1 72 +3 +3 1012.1 1008.6
17 15.06 З 7
{8}
н/о н/о +6.5 +3.0 78 +2 +2 1011.8 1008.3
18 15.06 З 7
{11}
>70 км 1/1 300 м
[Sc]
+6.3 +1.6 72 +1 +2 1012.5 1009.0 +6.1 +10.0
19 15.06 З 6
{9}
н/о н/о +5.9 +1.1 71 +1 +1 1012.6 1009.0
20 15.06 З 6
{9}
н/о н/о +5.6 +1.5 75 +1 +1 1012.6 1009.1
21 15.06 З 8
{10}
>70 км 1/1 600 м
[Sc Ci fib]
+5.0 +1.0 75 -1 -1 1012.6 1009.1
22 15.06 З 6
{9}
н/о н/о +5.1 +0.3 71 0 0 1012.8 1009.3
23 15.06 З 7
{8}
н/о н/о +4.8 +0.8 75 -1 -1 1012.8 1009.2
00 16.06 З 9
{11}
70 км 8/5 600 м
[Sc Ac lent Ci fib]
+4.0 +0.7 79 -2 -2 1012.4 1008.9
01 16.06 З 9
{11}
н/о н/о +4.3 +0.3 75 -2 -2 1012.6 1009.0
02 16.06 З 7
{11}
н/о н/о +4.2 +1.1 80 -2 -2 1012.3 1008.8
03 16.06 З 7
{9}
70 км 6/5 600 м
[Sc Ci fib]
+4.7 -0.1 71 -1 -0 1012.2 1008.7
04 16.06 З 8
{10}
н/о н/о +5.1 +0.3 71 -1 -1 1011.7 1008.2
05 16.06 З 8
{10}
н/о н/о +5.1 +0.5 72 -1 -1 1011.5 1007.9
06 16.06 З 7
{11}
70 км 6/5 300 м
[Sc Ci fib]
+4.9 -0.1 70 -0 0 1011.5 1008.0 +3.9 +6.5
07 16.06 З 9
{10}
н/о н/о +5.5 +0.7 71 -0 -0 1011.3 1007.7
08 16.06 З 8
{11}
н/о н/о +5.2 -0.4 67 -0 -0 1011.3 1007.7
09 16.06 З 9
{11}
70 км 6/5 300 м
[Sc Ci fib]
+5.4 +0.2 69 -0 0 1011.5 1008.0
10 16.06 З 8
{9}
н/о н/о +5.2 +0.4 71 -0 -0 1011.4 1007.9
11 16.06 З 8
{10}
н/о н/о +5.5 +0.3 69 0 0 1011.0 1007.5
12 16.06 З 9
{11}
н/о н/о +5.1 -0.7 66 -1 -1 1011.2 1007.7
13 16.06 З 9
{11}
н/о н/о +5.3 +0.3 70 -1 -1 1011.1 1007.5
14 16.06 З 10
{11}
н/о н/о +5.3 +0.3 70 -1 -1 1010.9 1007.3
15 16.06 З 10
{12}
70 км 6/6 600 м
[Sc]
+5.1 -0.1 69 -1 -1 1010.7 1007.2
16 16.06 З 11
{12}
н/о н/о +5.2 -0.4 67 -1 -1 1010.8 1007.2
17 16.06 З 10
{12}
н/о н/о +4.8 -0.4 69 -1 -1 1010.5 1006.9
18 16.06 З 9
{12}
>70 км 3/1 600 м
[Sc Ci sp]
+4.9 -0.7 67 -1 -1 1010.5 1007.0 +4.7 +5.8
19 16.06 З 8
{11}
н/о н/о +4.6 -0.2 71 -1 -1 1010.5 1006.9
20 16.06 З 9
{10}
н/о н/о +4.4 -0.6 70 -2 -2 1009.9 1006.4
21 16.06 СЗ 7
{10}
70 км 5/1 600 м
[Sc Ac lent Ci fib]
+4.0 -0.9 70 -2 -1 1009.9 1006.3
22 16.06 СЗ 6
{8}
н/о н/о +3.5 -0.9 73 -2 -2 1010.0 1006.4
23 16.06 СЗ 7
{10}
н/о н/о +3.7 -1.6 68 -2 -2 1009.8 1006.3
00 17.06 З 4
{11}
70 км 5/4 600 м
[Sc Ac lent Ci fib]
+3.5 -1.4 70 -1 -0 1010.0 1006.5
01 17.06 СЗ 5
{6}
н/о н/о +3.3 -2.2 67 -2 -2 1009.9 1006.4
02 17.06 СЗ 5
{7}
н/о н/о +3.2 -2.7 65 -2 -2 1009.9 1006.3
03 17.06 СЗ 4
{6}
65 км 8/3 600 м
[Sc Ac lent]
+3.1 -2.8 65 -1 -1 1009.8 1006.2
04 17.06 З 4
{5}
н/о н/о +3.3 -2.2 67 -1 -1 1009.8 1006.3
05 17.06 СЗ 4
{6}
н/о н/о +3.9 -2.5 63 -0 -0 1009.6 1006.1
06 17.06 СЗ 5
{7}
65 км 6/1 600 м
[Sc Ac lent]
+3.2 -3.1 63 -2 -1 1009.6 1006.1 +2.8 +5.2
07 17.06 СЗ 4
{6}
н/о н/о +3.5 -3.1 62 -1 -1 1009.8 1006.2
08 17.06 З 3
{5}
н/о н/о +3.6 -2.5 64 0 0 1009.7 1006.2
09 17.06 СЗ 3
{5}
55 км 9/1 600 м
[Sc Ac lent Cs]
+3.9 -2.3 64 +1 +3 1010.0 1006.5
10 17.06 С 3
{7}
н/о н/о +2.8 -1.2 75 -1 -1 1010.3 1006.8
11 17.06 З 2
{5}
н/о н/о +2.3 +0.1 85 -1 -1 1010.7 1007.1
12 17.06 З 2
{7}
65 км слаб. морось {дождь} 9/9 300 м
[Sc]
+3.0 +0.6 84 0 +1 1010.7 1007.1
13 17.06 СЗ 2
{3}
н/о н/о +3.8 -0.2 75 +1 +1 1010.6 1007.1
14 17.06 З 2
{4}
н/о н/о +4.6 -0.6 69 +2 +2 1010.4 1006.9
15 17.06 З 3
{5}
70 км {морось} 8/1 200 м
[Sc Ac trans Ci fib]
+4.8 -1.2 65 +2 +4 1010.5 1007.0
16 17.06 З 3
{5}
н/о н/о +5.0 -0.8 66 +2 +2 1010.5 1007.0
17 17.06 З 4
{5}
н/о н/о +5.0 -1.6 62 +1 +1 1010.5 1006.9
18 17.06 З 4
{5}
70 км 8/1 300 м
[Sc Ac trans Ci fib]
+5.6 -2.5 56 +2 +3 1010.3 1006.8 +2.2 +5.7
19 17.06 З 3
{5}
н/о н/о +5.7 -1.4 60 +3 +3 1010.1 1006.6
20 17.06 ЮЗ 4
{5}
н/о н/о +5.7 -1.9 58 +2 +2 1010.1 1006.6
21 17.06 ЮЗ 6
{7}
70 км 8/1 600 м
[Sc Ci sp]
+5.6 -1.5 60 +1 +1 1010.0 1006.5
22 17.06 ЮЗ 4
{7}
н/о н/о +4.8 -0.6 68 +1 +1 1010.1 1006.6
23 17.06 ЮЗ 5
{7}
н/о н/о +5.6 -1.3 61 +2 +2 1009.8 1006.2
00 18.06 ЮЗ 5
{7}
>70 км 9/0 1500 м
[Ac trans]
+6.0 -1.1 60 +2 +2 1009.5 1006.0
01 18.06 ЮЗ 6
{8}
н/о н/о +6.0 -1.6 58 +2 +2 1009.4 1005.9
02 18.06 З 5
{8}
н/о н/о +5.8 -1.1 61 +2 +2 1009.3 1005.8
03 18.06 ЮЗ 5
{7}
60 км 9/9 1500 м
[Sc]
+5.6 -0.4 65 +1 +2 1009.2 1005.7
04 18.06 З 4
{7}
н/о н/о +5.6 -0.6 64 +2 +2 1009.2 1005.7
05 18.06 З 5
{8}
н/о н/о +5.7 +1.5 74 +1 +1 1009.1 1005.6
06 18.06 З 5
{8}
65 км 6/1 600 м
[Sc Ac lent Ci fib]
+6.6 +1.7 71 +3 +4 1009.0 1005.5 +4.7 +6.8
07 18.06 З 6
{7}
н/о н/о +6.8 +0.9 66 +3 +3 1008.7 1005.2
08 18.06 З 5
{7}
н/о н/о +6.5 -0.4 61 +3 +3 1009.0 1005.5
09 18.06 З 5
{7}
>70 км 4/1 600 м
[Sc Ac lent Ci fib]
+6.7 -0.3 61 +3 +6 1009.0 1005.5
10 18.06 З 6
{7}
н/о н/о +6.6 +0.9 67 +2 +2 1009.2 1005.7
11 18.06 З 5
{7}
н/о н/о +6.8 +0.5 64 +3 +3 1009.2 1005.7
12 18.06 З 4
{7}
>70 км 1/1 600 м
[Cu hum Ci fib]
+6.7 0.0 62 +3 +8 1009.2 1005.7
13 18.06 З 3
{6}
н/о н/о +6.7 +0.8 66 +4 +4 1009.2 1005.7
14 18.06 З 4
{6}
н/о н/о +6.9 +0.6 64 +4 +4 1009.5 1006.0
15 18.06 СЗ 6
{7}
>70 км 1/1 600 м
[Sc Ac lent Ci fib]
+7.0 +0.9 65 +3 +5 1009.6 1006.1
16 18.06 З 2
{7}
н/о н/о +6.9 -0.5 59 +5 +5 1009.4 1005.9
17 18.06 З 3
{5}
н/о н/о +6.5 +1.2 69 +4 +4 1009.7 1006.2
18 18.06 З 2
{7}
70 км 9/5 600 м
[Sc Ac trans]
+6.7 +1.2 68 +5 +5 1009.5 1006.0 +6.2 +7.6
19 18.06 З 3
{5}
н/о н/о +6.4 -0.3 62 +4 +4 1009.7 1006.2
20 18.06 З 4
{5}
н/о н/о +6.4 +0.1 64 +3 +3 1009.7 1006.2
21 18.06 З 2
{6}
70 км 9/3 1000 м
[Sc Ac und]
+6.3 -0.2 63 +4 +5 1009.6 1006.1
22 18.06 З 4
{5}
н/о н/о +7.2 -1.0 56 +4 +4 1009.5 1006.0
23 18.06 З 6
{7}
н/о н/о +6.5 -0.4 61 +2 +2 1009.4 1005.8
00 19.06 ЮЗ 6
{8}
70 км 9/3 1000 м
[Sc Ac trans]
+6.7 0.0 62 +3 +3 1009.2 1005.7
01 19.06 ЮЗ 8
{9}
н/о н/о +6.7 0.0 62 +2 +2 1009.3 1005.8
02 19.06 ЮЗ 7
{10}
н/о н/о +6.8 +0.3 63 +2 +2 1009.0 1005.4
03 19.06 З 8
{10}
70 км 9/1 1500 м
[Sc Ac trans]
+7.1 +0.1 61 +2 +3 1008.8 1005.3
05 19.06 ЮЗ 7
{10}
н/о н/о +8.4 +1.1 60 +4 +4 1008.5 1005.0
06 19.06 ЮЗ 6
{10}
65 км 6/1 1000 м
[Sc Ac trans]
+9.1 +1.3 58 +6 +7 1008.4 1004.9 +6.1 +9.3
07 19.06 ЮЗ 8
{10}
н/о н/о +7.9 +0.4 59 +4 +4 1008.4 1004.9
08 19.06 ЮЗ 7
{9}
н/о н/о +9.0 +1.2 58 +5 +5 1008.5 1005.0

 

Местоположение метеостанции Свальбард аэропорт (Норвегия): широта 78.25 долгота 15.50 высота над уровнем моря 28 м.

В архиве по умолчанию представлена погода в Свальбард аэропорту за последнюю неделю. Архивные данные за месяц целиком и за предыдущие месяцы, начиная с января 2011 года, Вы можете получить, выбрав интересующий диапазон дат из раскрывающегося списка и нажав кнопку "Ввод!".


*Определитесь, кто Вы:
робот инопланетянин человек

Внимание! Время в таблицах - всемирное. Для получения местного времени необходимо прибавить поправку, которая равна 1 ч.

Смотрите также архив погоды в соседних городах и на ближайших метеорологических станциях:

Погода в Баренцбурге (Шпицберген, Россия) (35 км)
Погода в Пирамиде (Норвегия) (49 км)
Погода на Акселойа (Норвегия) (66 км)
Погода в Ню-Олесунн (Норвегия) (108 км)
Погода на Хорнсунне (Норвегия) (139 км)
Погода на Эдже (Норвегия) (166 км)
Погода на Сёркаппёйа (Норвегия) (199 км)
Погода на Верлегенхукен (Норвегия) (201 км)
Погода в Хопене (Норвегия) (301 км)
Погода на Конгсёйа (Норвегия) (303 км)

Пояснения к столбцам:

Ветер - указаны скорость ветра в м/с - средняя за 10 мин, порывы в срок и между сроками (в фигурных скобках) и направление, откуда дует ветер: С - северный, СВ - северо-восточный, В - восточный, ЮВ - юго-восточный, Ю - южный, ЮЗ - юго-западный, З - западный, СЗ - северо-западный.
Видимость - горизонтальная дальность видимости в метрах или километрах. При видимости от 1 до 10 км при отсутствии осадков обычно наблюдается дымка, при ухудшении видимости до 1 км и менее - туман. В сухую погоду видимость может ухудшаться дымом, пылью или мглою.
Явления - указаны атмосферные явления, наблюдавшиеся в срок или в последний час перед сроком; фигурными скобками обозначены явления, наблюдавшиеся между сроками (за 1-3 часа до срока); квадратными скобками обозначены град или гололедные отложения с указанием их диаметра в мм.
Облачность - указаны через наклонную черту общая и нижняя облачность в баллах и высота нижней границы облаков в метрах; квадратными скобками обозначены формы облаков: Ci - перистые, Cs - перисто-слоистые, Cc - перисто-кучевые, Ac - высококучевые, As - высокослоистые, Sc - слоисто-кучевые, Ns - слоисто-дождевые, Cu - кучевые, Cb - кучево-дождевые. Подробнее классификацию облаков см. в Атласе облаков (PDF).
T - Температура воздуха - температура, измеренная на высоте 2 м над землей.
Td - Температура точки росы - температура, при понижении до которой содержащийся в воздухе водяной пар достигнет насыщения.
f - Относительная влажность воздуха - влажноcть воздуха, измеренная на высоте 2 м над землей.
Te - Эффективная температура - температура, которую ощущает одетый по сезону человек в тени. Характеристика душности погоды. При расчете учитывается влияние влажности воздуха и скорости ветра на теплоощущения человека.
Tes - Эффективная температура на солнце - температура, которую ощущает человек, с поправкой на солнечный нагрев. Характеристика знойности погоды. Зависит от высоты солнца над горизонтом, облачности и скорости ветра. Ночью, в пасмурную погоду, а также при ветре 12 м/с и более поправка равна нулю.
P - Атмосферное давление - приведенное к уровню моря атмосферное давление.
Po - Атмосферное давление - измеренное на уровне метеостанции атмосферное давление.
Tmin - Минимальная температура - минимум температуры воздуха на высоте 2 м над землей.
Tmax - Максимальная температура - максимум температуры воздуха на высоте 2 м над землей.
R - Количество осадков - Количество выпавших осадков за период времени, мм. При наведении курсора мыши на число - период времени, за который выпало указанное количество осадков.
R24 - Количество осадков - Количество выпавших осадков за 24 часа, мм.
S - Снежный покров - Высота снежного покрова, см. При наведении курсора мыши на число - состояние снежного покрова и степень покрытия местности в баллах.